Time,TemperatureF,DewpointF,PressureIn,WindDirection,WindDirectionDegrees,WindSpeedMPH,WindSpeedGustMPH,Humidity,HourlyPrecipIn,Conditions,Clouds,dailyrainin,SolarRadiationWatts/m^2,SoftwareType,DateUTC
2013-10-16 00:24:00,54.0,46.0,-100.00,SSW,210,1.0,3.0,73,-99.99,,,-99.99,0.000000,,2013-10-16 04:24:00,
2013-10-16 00:43:00,54.0,46.0,-100.00,SSW,195,1.0,5.0,73,-99.99,,,-99.99,0.000000,,2013-10-16 04:43:00,
2013-10-16 01:13:00,54.0,46.0,-100.00,SSE,152,5.0,9.0,73,-99.99,,,-99.99,0.000000,,2013-10-16 05:13:00,
2013-10-16 01:53:00,53.0,45.0,-100.00,SE,138,4.0,7.0,73,-99.99,,,-99.99,0.000000,,2013-10-16 05:53:00,
2013-10-16 02:03:00,53.0,45.0,-100.00,SE,138,4.0,7.0,73,-99.99,,,-99.99,0.000000,,2013-10-16 06:03:00,
2013-10-16 03:11:00,53.0,43.0,-100.00,SSE,147,3.0,7.0,67,-99.99,,,-99.99,0.000000,,2013-10-16 07:11:00,
2013-10-16 03:42:00,53.0,43.0,-100.00,SE,141,3.0,6.0,69,-99.99,,,-99.99,0.000000,,2013-10-16 07:42:00,
2013-10-16 04:11:00,53.0,42.0,-100.00,SE,141,5.0,9.0,68,-99.99,,,-99.99,0.000000,,2013-10-16 08:11:00,
2013-10-16 04:21:00,52.0,41.0,-100.00,SSE,150,5.0,9.0,66,-99.99,,,-99.99,0.000000,,2013-10-16 08:21:00,
2013-10-16 04:42:00,52.0,41.0,-100.00,SSE,154,4.0,6.0,66,-99.99,,,-99.99,0.000000,,2013-10-16 08:42:00,
2013-10-16 04:52:00,52.0,41.0,-100.00,SE,146,4.0,8.0,66,-99.99,,,-99.99,0.000000,,2013-10-16 08:52:00,
2013-10-16 05:11:00,52.0,41.0,-100.00,SSE,148,4.0,7.0,65,-99.99,,,-99.99,0.000000,,2013-10-16 09:11:00,
2013-10-16 05:43:00,52.0,41.0,-100.00,SE,144,3.0,8.0,66,-99.99,,,-99.99,0.000000,,2013-10-16 09:43:00,
2013-10-16 06:42:00,51.0,42.0,-100.00,SE,137,4.0,6.0,69,-99.99,,,-99.99,0.000000,,2013-10-16 10:42:00,
2013-10-16 07:42:00,51.0,42.0,-100.00,ESE,114,3.0,4.0,72,-99.99,,,-99.99,0.000000,,2013-10-16 11:42:00,
2013-10-16 08:42:00,51.0,43.0,-100.00,NE,35,1.0,2.0,74,-99.99,,,-99.99,0.000000,,2013-10-16 12:42:00,
2013-10-16 08:52:00,51.0,43.0,-100.00,NNE,24,2.0,3.0,74,-99.99,,,-99.99,0.000000,,2013-10-16 12:52:00,
2013-10-16 09:01:00,51.0,43.0,-100.00,NNE,24,2.0,3.0,74,-99.99,,,-99.99,0.000000,,2013-10-16 13:01:00,
2013-10-16 09:42:00,51.0,44.0,-100.00,ESE,105,1.0,3.0,78,-99.99,,,-99.99,1.390000,,2013-10-16 13:42:00,
2013-10-16 10:42:00,50.0,45.0,-100.00,SE,135,5.0,7.0,81,-99.99,,,-99.99,22.309999,,2013-10-16 14:42:00,
2013-10-16 11:43:00,52.0,45.0,-100.00,ENE,71,2.0,5.0,77,-99.99,,,-99.99,164.570007,,2013-10-16 15:43:00,
2013-10-16 13:52:00,62.0,43.0,-100.00,West,262,6.0,15.0,50,-99.99,,,-99.99,681.989990,,2013-10-16 17:52:00,
2013-10-16 14:02:00,62.0,43.0,-100.00,West,262,6.0,15.0,50,-99.99,,,-99.99,681.989990,,2013-10-16 18:02:00,
2013-10-16 15:52:00,65.0,33.0,-100.00,West,269,11.0,23.0,29,-99.99,,,-99.99,755.210022,,2013-10-16 19:52:00,
2013-10-16 16:03:00,65.0,33.0,-100.00,West,269,11.0,23.0,29,-99.99,,,-99.99,755.210022,,2013-10-16 20:03:00,
2013-10-16 16:52:00,67.0,26.0,-100.00,West,281,11.0,21.0,21,-99.99,,,-99.99,700.820007,,2013-10-16 20:52:00,
2013-10-16 17:02:00,67.0,26.0,-100.00,West,281,11.0,21.0,21,-99.99,,,-99.99,700.820007,,2013-10-16 21:02:00,
2013-10-16 18:54:00,69.0,20.0,-100.00,NW,306,5.0,15.0,15,-99.99,,,-99.99,416.309998,,2013-10-16 22:54:00,
2013-10-16 19:02:00,69.0,20.0,-100.00,NW,306,5.0,15.0,15,-99.99,,,-99.99,416.309998,,2013-10-16 23:02:00,
2013-10-16 20:11:00,68.0,15.0,-100.00,West,274,9.0,17.0,13,-99.99,,,-99.99,172.240005,,2013-10-17 00:11:00,
2013-10-16 20:42:00,66.0,14.0,-100.00,West,272,7.0,14.0,13,-99.99,,,-99.99,14.640000,,2013-10-17 00:42:00,
2013-10-16 23:12:00,59.0,10.0,-100.00,WNW,291,8.0,9.0,14,-99.99,,,-99.99,0.000000,,2013-10-17 03:12:00,
2013-10-16 23:22:00,58.0,10.0,-100.00,WNW,295,8.0,10.0,14,-99.99,,,-99.99,0.000000,,2013-10-17 03:22:00,
2013-10-16 23:44:00,57.0,10.0,-100.00,WNW,292,10.0,11.0,15,-99.99,,,-99.99,0.000000,,2013-10-17 03:44:00,